When you browse on this site, cookies collect data to enhance your experience and personalize the content and advertising you see.
Visit our Privacy Policy to learn more. By continuing to use the site, you agree to this use of cookies and data.
  • In Denmark
  • List of Countries
  • For 7 days
  • Water Temperature
  • Satellite Maps
  • Weather Map
  • Weather Widgets
  • user-avatar
    Login

    Hourly Weather Ballycastle

    Today, 17 February, Sunday

    Time Temperature Precipitation Wind Pressure Humidity
    00:00 +9°C° 0.1 mm 10 mps 749 mmHg 89%
    01:00 +8°C° 0.1 mm 11 mps 749 mmHg 88%
    02:00 +8°C° 0.1 mm 11 mps 748 mmHg 88%
    03:00 +8°C° 0.1 mm 11 mps 748 mmHg 88%
    04:00 +8°C° 0.1 mm 11 mps 747 mmHg 88%
    05:00 +8°C° 0.1 mm 11 mps 747 mmHg 89%
    06:00 +8°C° 0.1 mm 11 mps 746 mmHg 90%
    07:00 +8°C° 0.5 mm 10 mps 747 mmHg 90%
    08:00 +8°C° 0.5 mm 9 mps 747 mmHg 89%
    09:00 +7°C° 0.5 mm 8 mps 747 mmHg 89%
    10:00 +7°C° 0 mm 8 mps 747 mmHg 85%
    11:00 +7°C° 0 mm 8 mps 747 mmHg 80%
    12:00 +7°C° 0 mm 8 mps 748 mmHg 76%
    13:00 +7°C° 0 mm 8 mps 748 mmHg 73%
    14:00 +9°C° 0 mm 8 mps 748 mmHg 70%
    15:00 +9°C° 0 mm 8 mps 747 mmHg 68%
    16:00 +7°C° 0 mm 8 mps 747 mmHg 71%
    17:00 +6°C° 0 mm 8 mps 747 mmHg 73%
    18:00 +6°C° 0 mm 8 mps 747 mmHg 76%
    19:00 +5°C° 0 mm 9 mps 747 mmHg 78%
    20:00 +5°C° 0 mm 9 mps 747 mmHg 79%
    21:00 +5°C° 0 mm 9 mps 747 mmHg 81%
    22:00 +5°C° 0 mm 10 mps 747 mmHg 80%
    23:00 +5°C° 0 mm 10 mps 747 mmHg 79%

    Tomorrow, 18 February, Monday

    Time Temperature Precipitation Wind Pressure Humidity
    00:00 +4°C° 0 mm 11 mps 747 mmHg 78%
    01:00 +5°C° 0 mm 10 mps 747 mmHg 78%
    02:00 +5°C° 0 mm 10 mps 746 mmHg 79%
    03:00 +5°C° 0 mm 9 mps 746 mmHg 80%
    04:00 +3°C° 0 mm 10 mps 746 mmHg 80%
    05:00 +3°C° 0 mm 10 mps 747 mmHg 80%
    06:00 +2°C° 0 mm 10 mps 747 mmHg 81%
    07:00 +3°C° 0 mm 10 mps 747 mmHg 82%
    08:00 +3°C° 0 mm 10 mps 748 mmHg 83%
    09:00 +5°C° 0 mm 9 mps 748 mmHg 84%
    10:00 +5°C° 0 mm 9 mps 748 mmHg 81%
    11:00 +6°C° 0 mm 9 mps 749 mmHg 77%
    12:00 +7°C° 0 mm 8 mps 749 mmHg 74%
    13:00 +7°C° 0.2 mm 8 mps 749 mmHg 75%
    14:00 +7°C° 0.2 mm 8 mps 750 mmHg 76%
    15:00 +7°C° 0.2 mm 8 mps 750 mmHg 77%
    16:00 +6°C° 0.1 mm 7 mps 750 mmHg 80%
    17:00 +5°C° 0.1 mm 7 mps 751 mmHg 84%
    18:00 +4°C° 0.1 mm 6 mps 751 mmHg 87%
    19:00 +4°C° 0 mm 7 mps 752 mmHg 88%
    20:00 +3°C° 0 mm 7 mps 752 mmHg 89%
    21:00 +3°C° 0 mm 7 mps 752 mmHg 90%
    22:00 +2°C° 0 mm 7 mps 753 mmHg 90%
    23:00 +2°C° 0 mm 7 mps 753 mmHg 91%

    Day after tomorrow, 19 February, Tuesday

    Time Temperature Precipitation Wind Pressure Humidity
    00:00 +2°C° 0 mm 7 mps 753 mmHg 91%
    01:00 0°C° 0 mm 7 mps 753 mmHg 91%
    02:00 0°C° 0 mm 7 mps 754 mmHg 91%
    03:00 0°C° 0 mm 7 mps 754 mmHg 91%
    04:00 0°C° 0 mm 7 mps 754 mmHg 92%
    05:00 +1°C° 0 mm 6 mps 754 mmHg 92%
    06:00 -1°C° 0 mm 6 mps 754 mmHg 92%
    07:00 +1°C° 0 mm 6 mps 754 mmHg 91%
    08:00 +1°C° 0 mm 6 mps 754 mmHg 90%
    09:00 +2°C° 0 mm 6 mps 754 mmHg 89%
    10:00 +2°C° 0.3 mm 7 mps 754 mmHg 90%
    11:00 +3°C° 0.3 mm 7 mps 754 mmHg 90%
    12:00 +4°C° 0.3 mm 8 mps 754 mmHg 90%
    13:00 +4°C° 0.6 mm 8 mps 753 mmHg 91%
    14:00 +5°C° 0.6 mm 9 mps 752 mmHg 91%
    15:00 +5°C° 0.6 mm 9 mps 752 mmHg 92%
    16:00 +5°C° 0.5 mm 9 mps 751 mmHg 92%
    17:00 +6°C° 0.5 mm 8 mps 751 mmHg 92%
    18:00 +6°C° 0.5 mm 8 mps 751 mmHg 92%
    19:00 +6°C° 0.5 mm 8 mps 750 mmHg 93%
    20:00 +6°C° 0.5 mm 8 mps 750 mmHg 93%
    21:00 +7°C° 0.5 mm 8 mps 750 mmHg 93%
    22:00 +7°C° 1.5 mm 8 mps 750 mmHg 94%
    23:00 +7°C° 1.5 mm 8 mps 750 mmHg 94%

    20 February, Wednesday

    Time Temperature Precipitation Wind Pressure Humidity
    00:00 +7°C° 1.5 mm 8 mps 750 mmHg 94%
    01:00 +7°C° 0.9 mm 8 mps 750 mmHg 94%
    02:00 +9°C° 0.9 mm 8 mps 750 mmHg 93%
    03:00 +9°C° 0.9 mm 8 mps 750 mmHg 93%
    04:00 +9°C° 0.2 mm 8 mps 750 mmHg 92%
    05:00 +9°C° 0.2 mm 8 mps 750 mmHg 92%
    06:00 +9°C° 0.2 mm 8 mps 750 mmHg 92%
    07:00 +8°C° 0.2 mm 9 mps 750 mmHg 92%
    08:00 +8°C° 0.2 mm 9 mps 750 mmHg 92%
    09:00 +8°C° 0.2 mm 9 mps 750 mmHg 92%
    10:00 +8°C° 0.7 mm 9 mps 750 mmHg 91%
    11:00 +10°C° 0.7 mm 9 mps 750 mmHg 91%
    12:00 +10°C° 0.7 mm 9 mps 750 mmHg 91%
    13:00 +10°C° 0.1 mm 9 mps 751 mmHg 88%
    14:00 +10°C° 0.1 mm 9 mps 751 mmHg 86%
    15:00 +10°C° 0.1 mm 9 mps 751 mmHg 84%
    16:00 +10°C° 0.1 mm 8 mps 752 mmHg 85%
    17:00 +9°C° 0.1 mm 7 mps 753 mmHg 87%
    18:00 +9°C° 0.1 mm 6 mps 753 mmHg 89%
    19:00 +8°C° 0 mm 6 mps 754 mmHg 90%
    20:00 +7°C° 0 mm 5 mps 755 mmHg 92%
    21:00 +6°C° 0 mm 4 mps 755 mmHg 94%
    22:00 +6°C° 0 mm 4 mps 756 mmHg 94%
    23:00 +6°C° 0 mm 4 mps 756 mmHg 94%

    21 February, Thursday

    Time Temperature Precipitation Wind Pressure Humidity
    00:00 +6°C° 0 mm 4 mps 757 mmHg 95%
    01:00 +6°C° 0 mm 5 mps 757 mmHg 95%
    02:00 +7°C° 0 mm 5 mps 757 mmHg 96%
    03:00 +7°C° 0 mm 5 mps 757 mmHg 96%
    04:00 +8°C° 0 mm 5 mps 757 mmHg 96%
    05:00 +8°C° 0 mm 5 mps 758 mmHg 96%
    06:00 +8°C° 0 mm 6 mps 758 mmHg 96%
    07:00 +8°C° 0 mm 6 mps 759 mmHg 95%
    08:00 +9°C° 0 mm 6 mps 759 mmHg 94%
    09:00 +9°C° 0 mm 6 mps 760 mmHg 93%
    10:00 +10°C° 0 mm 6 mps 760 mmHg 91%
    11:00 +10°C° 0 mm 6 mps 761 mmHg 88%
    12:00 +10°C° 0 mm 7 mps 761 mmHg 85%
    13:00 +10°C° 0 mm 7 mps 761 mmHg 84%
    14:00 +10°C° 0 mm 7 mps 761 mmHg 82%
    15:00 +10°C° 0 mm 7 mps 761 mmHg 81%
    16:00 +10°C° 0 mm 7 mps 761 mmHg 84%
    17:00 +9°C° 0 mm 7 mps 761 mmHg 87%
    18:00 +8°C° 0 mm 7 mps 762 mmHg 90%
    19:00 +8°C° 0 mm 7 mps 762 mmHg 91%
    20:00 +8°C° 0 mm 7 mps 762 mmHg 92%
    21:00 +8°C° 0 mm 7 mps 762 mmHg 93%
    22:00 +7°C° 0 mm 8 mps 763 mmHg 92%
    23:00 +7°C° 0 mm 8 mps 763 mmHg 92%

    22 February, Friday

    Time Temperature Precipitation Wind Pressure Humidity
    00:00 +7°C° 0 mm 8 mps 763 mmHg 91%
    01:00 +7°C° 0 mm 8 mps 763 mmHg 90%
    02:00 +7°C° 0 mm 9 mps 763 mmHg 88%
    03:00 +7°C° 0 mm 9 mps 763 mmHg 86%
    04:00 +8°C° 0 mm 9 mps 763 mmHg 85%
    05:00 +8°C° 0 mm 9 mps 763 mmHg 84%
    06:00 +8°C° 0 mm 9 mps 763 mmHg 83%
    07:00 +8°C° 0 mm 9 mps 764 mmHg 82%
    08:00 +9°C° 0 mm 8 mps 764 mmHg 82%
    09:00 +9°C° 0 mm 8 mps 764 mmHg 81%
    10:00 +10°C° 0 mm 8 mps 765 mmHg 80%
    11:00 +10°C° 0 mm 9 mps 765 mmHg 79%
    12:00 +11°C° 0 mm 9 mps 765 mmHg 78%
    13:00 +11°C° 0 mm 9 mps 765 mmHg 78%
    14:00 +11°C° 0 mm 10 mps 765 mmHg 79%
    15:00 +11°C° 0 mm 10 mps 765 mmHg 79%
    16:00 +11°C° 0 mm 10 mps 765 mmHg 80%
    17:00 +9°C° 0 mm 10 mps 765 mmHg 81%
    18:00 +8°C° 0 mm 10 mps 765 mmHg 82%
    19:00 +8°C° 0 mm 10 mps 765 mmHg 81%
    20:00 +8°C° 0 mm 10 mps 765 mmHg 80%
    21:00 +8°C° 0 mm 10 mps 765 mmHg 79%
    22:00 +8°C° 0 mm 10 mps 765 mmHg 80%
    23:00 +8°C° 0 mm 10 mps 765 mmHg 80%
    Show more